Total_Precipitation_Accumulation
2.02 1.96 1.88 1.79 1.83 1.87 1.88 2.00 2.21 2.17 1.84 1.52 1.47 1.54 1.60 1.61 1.75 1.66 1.54 1.78 1.78 1.74 1.80 1.90 1.97 2.03 2.03 2.04 2.09 2.18 2.32 2.44 2.49 2.54 2.54 2.48 2.52 2.68
1.87 1.92 1.89 1.77 1.77 1.84 1.92 1.96 2.03 2.13 1.95 1.48 1.35 1.44 1.65 1.78 1.97 1.80 1.71 1.98 1.91 1.81 1.77 1.76 1.74 1.73 1.80 1.85 1.90 1.97 1.99 2.02 2.17 2.32 2.45 2.50 2.55 2.71
1.77 1.81 1.83 1.80 1.81 1.85 1.95 2.03 2.07 2.15 2.14 1.71 1.47 1.46 1.60 1.71 1.79 1.73 1.71 1.75 1.73 1.87 1.73 1.61 1.57 1.55 1.58 1.62 1.68 1.75 1.80 1.84 1.90 2.03 2.21 2.35 2.37 2.38
1.71 1.75 1.78 1.80 1.84 1.85 1.96 2.03 2.02 1.98 2.01 1.90 1.62 1.49 1.47 1.49 1.54 1.59 1.59 1.55 1.52 1.71 1.67 1.57 1.48 1.47 1.49 1.52 1.54 1.59 1.67 1.73 1.76 1.77 1.83 1.95 2.05 2.13
1.58 1.63 1.63 1.69 1.77 1.76 1.83 1.92 1.92 1.89 1.87 1.80 1.57 1.38 1.34 1.35 1.46 1.54 1.54 1.48 1.39 1.51 1.54 1.54 1.49 1.46 1.47 1.43 1.43 1.44 1.46 1.50 1.49 1.52 1.57 1.67 1.78 1.88
1.46 1.52 1.57 1.61 1.64 1.67 1.76 1.80 1.82 1.86 1.87 1.84 1.71 1.49 1.35 1.30 1.36 1.46 1.53 1.47 1.38 1.32 1.48 1.48 1.48 1.48 1.47 1.36 1.26 1.24 1.23 1.30 1.42 1.47 1.54 1.59 1.63 1.70
1.45 1.48 1.56 1.75 1.79 1.77 1.77 1.74 1.77 1.86 1.88 1.86 1.72 1.56 1.39 1.30 1.33 1.28 1.33 1.41 1.44 1.37 1.37 1.35 1.31 1.30 1.36 1.41 1.37 1.31 1.30 1.33 1.40 1.49 1.58 1.64 1.68 1.72
1.48 1.44 1.48 1.63 1.63 1.67 1.70 1.70 1.77 1.89 1.94 1.86 1.66 1.44 1.19 1.05 1.07 1.19 1.29 1.46 1.54 1.34 1.32 1.39 1.31 1.36 1.31 1.31 1.44 1.40 1.37 1.42 1.45 1.49 1.54 1.57 1.59 1.64
1.43 1.38 1.33 1.31 1.38 1.24 1.36 1.52 1.59 1.62 1.59 1.56 1.54 1.26 1.09 0.99 1.12 1.30 1.33 1.35 1.25 1.13 1.29 1.53 1.45 1.43 1.31 1.35 1.49 1.40 1.39 1.44 1.46 1.44 1.43 1.47 1.54 1.57
1.24 1.21 1.17 1.10 1.11 1.17 1.21 1.33 1.26 1.22 1.21 1.14 1.11 1.03 1.01 1.07 1.22 1.41 1.51 1.55 1.39 1.27 1.34 1.56 1.43 1.38 1.27 1.29 1.46 1.42 1.43 1.46 1.48 1.49 1.48 1.46 1.48 1.55
1.09 1.06 1.06 1.02 1.15 1.33 1.34 1.29 1.16 1.13 1.21 1.26 1.26 1.25 1.34 1.44 1.51 1.70 1.87 2.00 1.79 1.41 1.25 1.30 1.23 1.20 1.21 1.26 1.36 1.48 1.46 1.48 1.53 1.57 1.58 1.56 1.50 1.50
0.98 0.96 1.03 1.03 1.22 1.40 1.35 1.29 1.20 1.01 1.02 1.13 1.18 1.19 1.19 1.27 1.47 1.50 1.62 1.97 1.81 1.46 1.04 1.07 1.12 1.23 1.53 1.28 1.18 1.25 1.39 1.50 1.50 1.52 1.55 1.59 1.62 1.59
1.01 0.99 0.99 1.12 1.25 1.37 1.39 1.27 1.21 1.17 1.13 1.17 1.20 1.17 1.19 1.21 1.25 1.27 1.33 1.63 1.86 1.50 0.94 1.20 1.46 1.32 1.55 1.31 1.08 1.08 1.15 1.30 1.41 1.48 1.52 1.56 1.63 1.75
1.06 0.99 1.06 1.27 1.36 1.41 1.38 1.31 1.36 1.41 1.31 1.35 1.36 1.28 1.22 1.18 1.13 1.13 1.20 1.25 1.34 1.33 1.05 1.36 1.88 1.62 1.76 1.52 1.10 1.02 1.07 1.13 1.23 1.35 1.42 1.63 1.71 1.76
1.04 1.11 1.20 1.30 1.35 1.35 1.36 1.34 1.30 1.24 1.27 1.35 1.29 1.16 1.06 1.06 1.11 1.21 1.29 1.32 1.32 1.24 1.16 1.19 1.50 1.62 1.92 1.90 1.37 1.04 1.09 1.16 1.16 1.26 1.39 1.52 1.63 1.76
1.09 1.14 1.19 1.21 1.21 1.22 1.27 1.30 1.25 1.21 1.25 1.26 1.19 1.13 1.14 1.22 1.27 1.28 1.40 1.44 1.55 1.42 1.23 1.15 1.26 1.64 1.95 1.63 1.55 1.35 1.13 1.22 1.19 1.27 1.38 1.40 1.39 1.50
1.31 1.26 1.17 1.10 1.12 1.14 1.13 1.15 1.20 1.24 1.29 1.21 1.24 1.29 1.30 1.30 1.31 1.27 1.35 1.44 1.51 1.31 1.20 1.19 1.24 1.37 1.57 1.64 1.66 1.33 1.17 1.21 1.24 1.38 1.54 1.58 1.42 1.41
1.45 1.36 1.15 1.03 1.00 1.01 1.06 1.10 1.14 1.18 1.19 1.23 1.29 1.32 1.36 1.36 1.34 1.31 1.37 1.46 1.44 1.22 1.10 1.10 1.27 1.55 1.60 1.50 1.36 1.27 1.27 1.29 1.28 1.35 1.52 1.76 1.57 1.37
1.29 1.10 1.00 0.98 0.98 0.99 1.02 1.05 1.08 1.07 1.16 1.28 1.35 1.36 1.40 1.42 1.41 1.40 1.40 1.46 1.40 1.25 1.15 1.13 1.34 1.84 2.00 1.45 1.05 1.00 1.25 1.37 1.39 1.50 1.56 1.72 1.74 1.44
0.99 0.91 0.91 0.94 1.00 1.07 1.12 1.13 1.12 1.13 1.20 1.28 1.32 1.36 1.45 1.53 1.50 1.39 1.34 1.39 1.43 1.35 1.26 1.18 1.27 1.65 2.13 1.76 1.35 0.95 0.96 1.28 1.67 1.83 1.63 1.52 1.49 1.40
0.92 0.91 0.95 1.02 1.07 1.13 1.18 1.22 1.26 1.27 1.24 1.31 1.35 1.37 1.44 1.59 1.54 1.35 1.34 1.35 1.44 1.47 1.37 1.14 1.03 1.21 1.67 2.13 1.87 1.16 1.01 1.11 1.45 1.95 2.05 2.06 1.80 1.49
1.03 1.04 1.03 1.06 1.13 1.19 1.24 1.28 1.31 1.29 1.29 1.35 1.36 1.38 1.42 1.56 1.58 1.46 1.45 1.50 1.42 1.34 1.28 1.16 1.17 1.39 1.78 2.16 1.74 1.15 1.04 1.10 1.23 1.34 1.70 2.32 2.91 2.64
1.13 1.15 1.15 1.15 1.18 1.24 1.29 1.30 1.29 1.25 1.25 1.32 1.35 1.36 1.43 1.50 1.46 1.49 1.50 1.53 1.56 1.49 1.44 1.41 1.37 1.45 1.53 1.58 1.59 1.33 1.13 1.09 1.13 1.23 1.36 1.43 1.61 1.83